Atmospheric History
02/08/2018 18:07  to  2/9/2018 18:07
Change End Date:
To complete the export process:
1) Select all of the data below
2) Copy the data to the clipboard
3) Open a word processor such as Notepad
4) Paste the data into the word processor
5) Save the file

Date/Time (MDT), AirTemp, RH, Dewpoint ,AvgWindSpeed, GustWindSpeed, WindDirection, PrecipType, PrecipIntensity, PrecipAccumulation, PrecipRate
02/09/2018 18:05, 2, 77, -3 ,3, 4, SW, None, None, ,  
02/09/2018 17:56, 2, 77, -4 ,0, 0, N, None, None, ,  
02/09/2018 17:55, 2, 77, -4 ,0, 1, N, None, None, ,  
02/09/2018 17:45, 2, 77, -4 ,1, 1, NW, None, None, ,  
02/09/2018 17:41, 2, 77, -4 ,1, 2, N, None, None, ,  
02/09/2018 17:34, 2, 77, -3 ,1, 2, N, None, None, ,  
02/09/2018 17:26, 2, 77, -3 ,1, 4, N, None, None, ,  
02/09/2018 17:24, 2, 77, -3 ,1, 4, N, None, None, ,  
02/09/2018 17:14, 2, 77, -3 ,4, 5, N, None, None, ,  
02/09/2018 17:11, 2, 77, -3 ,3, 6, N, None, None, ,  
02/09/2018 17:04, 2, 77, -3 ,5, 6, N, None, None, ,  
02/09/2018 16:56, 2, 76, -3 ,4, 6, N, None, None, ,  
02/09/2018 16:54, 2, 76, -3 ,5, 6, N, None, None, ,  
02/09/2018 16:44, 2, 76, -3 ,5, 9, N, None, None, ,  
02/09/2018 16:41, 2, 76, -3 ,6, 9, N, None, None, ,  
02/09/2018 16:34, 2, 77, -3 ,7, 9, N, None, None, ,  
02/09/2018 16:26, 2, 77, -3 ,7, 9, N, None, None, ,  
02/09/2018 16:24, 2, 77, -3 ,7, 9, N, None, None, ,  
02/09/2018 16:14, 2, 77, -3 ,7, 10, N, None, None, ,  
02/09/2018 16:11, 2, 77, -3 ,7, 11, N, None, None, ,  
02/09/2018 16:04, 2, 77, -3 ,8, 11, N, None, None, ,  
02/09/2018 15:56, 2, 77, -4 ,8, 10, N, None, None, ,  
02/09/2018 15:54, 2, 77, -3 ,8, 11, N, None, None, ,  
02/09/2018 15:44, 2, 76, -4 ,9, 11, N, None, None, ,  
02/09/2018 15:41, 2, 76, -4 ,9, 12, N, None, None, ,  
02/09/2018 15:34, 2, 76, -4 ,10, 13, N, None, None, ,  
02/09/2018 15:26, 2, 76, -4 ,11, 13, NE, None, None, ,  
02/09/2018 15:24, 2, 76, -4 ,11, 12, N, None, None, ,  
02/09/2018 15:14, 2, 76, -4 ,11, 14, N, None, None, ,  
02/09/2018 15:11, 2, 76, -4 ,10, 14, N, None, None, ,  
02/09/2018 15:04, 2, 76, -4 ,10, 12, N, None, None, ,  
02/09/2018 14:56, 2, 76, -4 ,9, 11, N, None, None, ,  
02/09/2018 14:54, 2, 76, -4 ,7, 11, N, None, None, ,  
02/09/2018 14:44, 2, 76, -4 ,10, 11, N, None, None, ,  
02/09/2018 14:41, 2, 76, -4 ,9, 11, N, None, None, ,  
02/09/2018 14:34, 2, 76, -4 ,9, 12, N, None, None, ,  
02/09/2018 14:26, 1, 76, -4 ,10, 12, N, None, None, ,  
02/09/2018 14:23, 1, 76, -5 ,9, 12, N, None, None, ,  
02/09/2018 14:13, 1, 76, -5 ,9, 12, N, None, None, ,  
02/09/2018 14:11, 1, 76, -5 ,9, 12, N, None, None, ,  
02/09/2018 14:03, 1, 77, -4 ,10, 12, N, None, None, ,  
02/09/2018 13:56, 2, 77, -4 ,9, 11, N, None, None, ,  
02/09/2018 13:53, 1, 77, -4 ,9, 11, N, None, None, ,  
02/09/2018 13:43, 2, 77, -4 ,9, 11, N, None, None, ,  
02/09/2018 13:41, 2, 77, -4 ,8, 11, N, None, None, ,  
02/09/2018 13:33, 2, 77, -4 ,9, 11, N, None, None, ,  
02/09/2018 13:26, 2, 77, -3 ,9, 11, N, None, None, ,  
02/09/2018 13:23, 2, 77, -3 ,7, 10, N, None, None, ,  
02/09/2018 13:13, 2, 77, -4 ,8, 11, N, None, None, ,  
02/09/2018 13:11, 2, 77, -4 ,9, 11, N, None, None, ,  
02/09/2018 13:03, 1, 77, -4 ,7, 10, N, None, None, ,  
02/09/2018 12:56, 1, 77, -4 ,7, 9, NE, None, None, ,  
02/09/2018 12:53, 1, 77, -5 ,9, 9, NE, None, None, ,  
02/09/2018 12:43, 0, 77, -5 ,7, 10, NE, None, None, ,  
02/09/2018 12:41, 0, 77, -5 ,7, 10, NE, None, None, ,  
02/09/2018 12:33, 0, 77, -5 ,9, 10, N, None, None, ,  
02/09/2018 12:26, 0, 77, -5 ,8, 10, N, None, None, ,  
02/09/2018 12:23, 0, 77, -5 ,9, 10, N, None, None, ,  
02/09/2018 12:13, 0, 77, -6 ,8, 11, N, None, None, ,  
02/09/2018 12:11, 0, 77, -6 ,8, 11, N, None, None, ,  
02/09/2018 12:03, 0, 77, -6 ,9, 12, NE, None, None, ,  
02/09/2018 11:56, -1, 77, -6 ,10, 12, N, None, None, ,  
02/09/2018 11:53, -1, 77, -6 ,10, 12, N, None, None, ,  
02/09/2018 11:43, -1, 77, -6 ,12, 14, N, None, None, ,  
02/09/2018 11:41, 0, 77, -6 ,11, 14, N, None, None, ,  
02/09/2018 11:33, -1, 77, -6 ,10, 12, N, None, None, ,  
02/09/2018 11:26, 0, 77, -6 ,10, 12, NE, None, None, ,  
02/09/2018 11:23, 0, 77, -5 ,8, 11, N, None, None, ,  
02/09/2018 11:12, -1, 76, -6 ,8, 11, NE, None, None, ,  
02/09/2018 11:11, -1, 76, -6 ,7, 11, N, None, None, ,  
02/09/2018 11:02, -1, 76, -7 ,9, 12, N, None, None, ,  
02/09/2018 10:56, -2, 76, -7 ,9, 12, NE, None, None, ,  
02/09/2018 10:52, -2, 76, -8 ,10, 14, N, None, None, ,  
02/09/2018 10:42, -2, 76, -8 ,10, 12, N, None, None, ,  
02/09/2018 10:41, -2, 76, -8 ,11, 13, N, None, None, ,  
02/09/2018 10:32, -3, 76, -9 ,12, 14, N, None, None, ,  
02/09/2018 10:26, -3, 76, -9 ,11, 13, N, None, None, ,  
02/09/2018 10:22, -3, 76, -9 ,11, 13, NE, None, None, ,  
02/09/2018 10:12, -3, 76, -9 ,11, 12, N, None, None, ,  
02/09/2018 10:11, -3, 76, -9 ,10, 12, N, None, None, ,  
02/09/2018 10:02, -3, 76, -9 ,9, 12, N, None, None, ,  
02/09/2018 09:56, -3, 76, -9 ,9, 11, NE, None, None, ,  
02/09/2018 09:52, -3, 76, -9 ,8, 11, N, None, None, ,  
02/09/2018 09:42, -4, 76, -9 ,9, 11, NE, None, None, ,  
02/09/2018 09:41, -4, 76, -9 ,9, 12, NE, None, None, ,  
02/09/2018 09:32, -4, 76, -10 ,10, 13, N, None, None, ,  
02/09/2018 09:26, -4, 76, -10 ,10, 13, N, None, None, ,  
02/09/2018 09:22, -4, 76, -10 ,11, 13, N, None, None, ,  
02/09/2018 09:12, -4, 76, -10 ,10, 12, N, None, None, ,  
02/09/2018 09:11, -4, 76, -10 ,9, 12, N, None, None, ,  
02/09/2018 09:02, -5, 76, -10 ,11, 13, N, None, None, ,  
02/09/2018 08:56, -5, 76, -10 ,11, 14, N, None, None, ,  
02/09/2018 08:52, -5, 76, -10 ,11, 14, N, None, None, ,  
02/09/2018 08:42, -5, 76, -10 ,12, 14, N, None, None, ,  
02/09/2018 08:41, -5, 76, -10 ,12, 14, N, None, None, ,  
02/09/2018 08:32, -5, 76, -10 ,11, 15, N, None, None, ,  
02/09/2018 08:26, -5, 76, -11 ,11, 14, N, None, None, ,  
02/09/2018 08:22, -5, 76, -11 ,11, 14, N, None, None, ,  
02/09/2018 08:12, -5, 76, -11 ,11, 13, N, None, None, ,  
02/09/2018 08:11, -5, 76, -11 ,11, 13, N, None, None, ,  
02/09/2018 08:02, -5, 76, -11 ,10, 13, N, None, None, ,  
02/09/2018 07:56, -5, 76, -11 ,10, 13, N, None, None, ,  
02/09/2018 07:52, -5, 76, -11 ,11, 13, N, None, None, ,  
02/09/2018 07:42, -6, 76, -11 ,7, 10, N, None, None, ,  
02/09/2018 07:41, -6, 76, -11 ,7, 10, N, None, None, ,  
02/09/2018 07:32, -6, 76, -12 ,7, 11, N, None, None, ,  
02/09/2018 07:26, -6, 76, -12 ,9, 11, N, None, None, ,  
02/09/2018 07:21, -6, 76, -12 ,9, 10, N, None, None, ,  
02/09/2018 07:11, -6, 76, -12 ,9, 12, N, None, None, ,  
02/09/2018 07:11, -6, 76, -12 ,9, 12, N, None, None, ,  
02/09/2018 07:01, -6, 76, -11 ,11, 14, N, None, None, ,  
02/09/2018 06:56, -6, 76, -11 ,12, 14, N, None, None, ,  
02/09/2018 06:51, -5, 76, -11 ,11, 15, N, None, None, ,  
02/09/2018 06:41, -5, 76, -10 ,13, 16, N, None, None, ,  
02/09/2018 06:41, -5, 76, -10 ,13, 16, N, None, None, ,  
02/09/2018 06:31, -5, 76, -10 ,11, 17, N, None, None, ,  
02/09/2018 06:26, -5, 76, -10 ,13, 16, N, None, None, ,  
02/09/2018 06:21, -4, 76, -10 ,13, 16, N, None, None, ,  
02/09/2018 06:11, -4, 76, -10 ,11, 15, N, None, None, ,  
02/09/2018 06:11, -4, 76, -10 ,11, 15, N, None, None, ,  
02/09/2018 06:01, -4, 76, -10 ,11, 16, N, None, None, ,  
02/09/2018 05:56, -4, 76, -10 ,13, 17, N, None, None, ,  
02/09/2018 05:51, -4, 76, -10 ,13, 17, N, None, None, ,  
02/09/2018 05:41, -4, 76, -10 ,12, 16, N, None, None, ,  
02/09/2018 05:41, -4, 76, -10 ,12, 16, N, None, None, ,  
02/09/2018 05:31, -4, 76, -10 ,9, 16, N, None, None, ,  
02/09/2018 05:26, -4, 76, -10 ,13, 17, N, None, None, ,  
02/09/2018 05:21, -4, 76, -10 ,14, 17, N, None, None, ,  
02/09/2018 05:11, -4, 76, -10 ,11, 17, N, None, None, ,  
02/09/2018 05:01, -4, 76, -9 ,13, 16, N, None, None, ,  
02/09/2018 04:56, -4, 76, -10 ,12, 17, N, None, None, ,  
02/09/2018 04:51, -4, 76, -10 ,13, 17, N, None, None, ,  
02/09/2018 04:41, -4, 76, -10 ,13, 16, N, None, None, ,  
02/09/2018 04:41, -4, 76, -10 ,13, 16, N, None, None, ,  
02/09/2018 04:31, -4, 76, -10 ,14, 20, N, None, None, ,  
02/09/2018 04:26, -4, 76, -9 ,17, 20, N, None, None, ,  
02/09/2018 04:21, -4, 76, -9 ,12, 16, N, None, None, ,  
02/09/2018 04:11, -4, 76, -9 ,14, 17, N, None, None, ,  
02/09/2018 04:11, -4, 76, -9 ,14, 17, N, None, None, ,  
02/09/2018 04:00, -4, 76, -9 ,10, 17, N, None, None, ,  
02/09/2018 03:56, -4, 76, -9 ,14, 17, N, None, None, ,  
02/09/2018 03:50, -4, 76, -9 ,13, 17, N, None, None, ,  
02/09/2018 03:41, -4, 76, -9 ,14, 19, N, None, None, ,  
02/09/2018 03:40, -4, 76, -9 ,14, 19, N, None, None, ,  
02/09/2018 03:30, -4, 76, -9 ,14, 16, N, None, None, ,  
02/09/2018 03:26, -4, 76, -9 ,13, 16, N, None, None, ,  
02/09/2018 03:20, -4, 76, -9 ,13, 17, N, None, None, ,  
02/09/2018 03:11, -4, 76, -9 ,16, 18, N, None, None, ,  
02/09/2018 03:10, -4, 76, -9 ,16, 18, N, None, None, ,  
02/09/2018 03:00, -4, 76, -9 ,15, 21, N, None, None, ,  
02/09/2018 02:56, -4, 76, -9 ,15, 21, N, None, None, ,  
02/09/2018 02:50, -4, 76, -9 ,14, 19, N, None, None, ,  
02/09/2018 02:41, -4, 76, -9 ,13, 18, N, None, None, ,  
02/09/2018 02:40, -4, 76, -9 ,13, 18, N, None, None, ,  
02/09/2018 02:30, -3, 76, -9 ,14, 17, N, None, None, ,  
02/09/2018 02:27, -3, 76, -9 ,14, 17, N, None, None, ,  
02/09/2018 02:20, -4, 76, -9 ,12, 18, N, None, None, ,  
02/09/2018 02:11, -4, 76, -9 ,12, 19, N, None, None, ,  
02/09/2018 02:10, -4, 76, -9 ,12, 19, N, None, None, ,  
02/09/2018 02:00, -4, 76, -9 ,15, 22, N, None, None, ,  
02/09/2018 01:56, -4, 76, -9 ,17, 22, N, None, None, ,  
02/09/2018 01:50, -4, 76, -9 ,17, 21, N, None, None, ,  
02/09/2018 01:41, -4, 76, -9 ,17, 21, N, None, None, ,  
02/09/2018 01:40, -4, 76, -9 ,17, 21, N, None, None, ,  
02/09/2018 01:30, -4, 76, -9 ,18, 23, N, None, None, ,  
02/09/2018 01:26, -4, 76, -9 ,19, 23, N, None, None, ,  
02/09/2018 01:20, -3, 76, -9 ,17, 23, N, None, None, ,  
02/09/2018 01:11, -3, 77, -9 ,18, 23, N, None, None, ,  
02/09/2018 01:10, -3, 77, -9 ,18, 23, N, None, None, ,  
02/09/2018 01:00, -3, 77, -9 ,17, 22, N, None, None, ,  
02/09/2018 00:56, -3, 77, -8 ,17, 21, N, None, None, ,  
02/09/2018 00:50, -3, 77, -8 ,15, 19, N, None, None, ,  
02/09/2018 00:41, -2, 77, -8 ,15, 21, N, None, None, ,  
02/09/2018 00:39, -2, 77, -8 ,16, 21, N, None, None, ,  
02/09/2018 00:29, -2, 77, -7 ,16, 21, N, None, None, ,  
02/09/2018 00:26, -2, 77, -7 ,14, 18, N, None, None, ,  
02/09/2018 00:19, -2, 77, -7 ,15, 18, N, None, None, ,  
02/09/2018 00:11, -2, 77, -7 ,15, 18, N, None, None, ,  
02/09/2018 00:09, -2, 77, -7 ,15, 17, N, None, None, ,  
02/08/2018 23:59, -2, 77, -7 ,12, 17, N, None, None, ,  
02/08/2018 23:56, -2, 77, -7 ,13, 17, N, None, None, ,  
02/08/2018 23:49, -2, 77, -7 ,12, 17, N, None, None, ,  
02/08/2018 23:41, -2, 77, -7 ,11, 14, N, None, None, ,  
02/08/2018 23:39, -2, 77, -8 ,12, 14, N, None, None, ,  
02/08/2018 23:29, -2, 77, -8 ,12, 14, N, None, None, ,  
02/08/2018 23:26, -2, 77, -8 ,12, 14, N, None, None, ,  
02/08/2018 23:19, -2, 77, -8 ,11, 16, N, None, None, ,  
02/08/2018 23:11, -2, 77, -8 ,14, 17, N, None, None, ,  
02/08/2018 23:09, -2, 77, -7 ,14, 17, N, None, None, ,  
02/08/2018 22:59, -2, 77, -7 ,14, 17, N, None, None, ,  
02/08/2018 22:56, -2, 77, -7 ,14, 17, N, None, None, ,  
02/08/2018 22:49, -2, 77, -7 ,13, 16, N, None, None, ,  
02/08/2018 22:41, -2, 77, -7 ,12, 16, N, None, None, ,  
02/08/2018 22:39, -2, 77, -7 ,14, 16, N, None, None, ,  
02/08/2018 22:29, -2, 77, -7 ,12, 18, N, None, None, ,  
02/08/2018 22:26, -2, 77, -7 ,15, 21, N, None, None, ,  
02/08/2018 22:19, -2, 77, -7 ,17, 21, N, None, None, ,  
02/08/2018 22:11, -2, 77, -7 ,14, 20, N, None, None, ,  
02/08/2018 22:09, -2, 77, -7 ,15, 20, N, None, None, ,  
02/08/2018 21:59, -2, 77, -7 ,14, 17, N, None, None, ,  
02/08/2018 21:56, -1, 77, -7 ,14, 17, N, None, None, ,  
02/08/2018 21:49, -1, 77, -7 ,14, 21, N, None, None, ,  
02/08/2018 21:41, -1, 77, -6 ,17, 21, N, None, None, ,  
02/08/2018 21:39, -1, 77, -6 ,17, 19, N, None, None, ,  
02/08/2018 21:28, -1, 77, -7 ,18, 21, N, None, None, ,  
02/08/2018 21:26, -1, 77, -6 ,17, 20, N, None, None, ,  
02/08/2018 21:18, -1, 77, -6 ,17, 21, N, None, None, ,  
02/08/2018 21:11, -1, 77, -6 ,16, 24, N, None, None, ,  
02/08/2018 21:08, -1, 77, -6 ,17, 25, N, None, None, ,  
02/08/2018 20:58, 0, 77, -6 ,19, 24, N, None, None, ,  
02/08/2018 20:56, 0, 78, -6 ,19, 27, N, None, None, ,  
02/08/2018 20:48, 0, 78, -5 ,21, 27, N, None, None, ,  
02/08/2018 20:41, 0, 78, -5 ,19, 24, N, Yes, , ,  
02/08/2018 20:38, 0, 78, -5 ,21, 27, N, None, None, ,  
02/08/2018 20:28, 0, 78, -5 ,23, 28, N, None, None, ,  
02/08/2018 20:26, 0, 78, -5 ,21, 26, N, Yes, , ,  
02/08/2018 20:18, 0, 78, -5 ,21, 26, N, Yes, , ,  
02/08/2018 20:11, 0, 78, -5 ,21, 25, N, None, None, ,  
02/08/2018 20:08, 0, 78, -5 ,21, 25, N, None, None, ,  
02/08/2018 19:58, 1, 78, -5 ,21, 29, N, Yes, , ,  
02/08/2018 19:56, 1, 78, -5 ,19, 29, N, Yes, , ,  
02/08/2018 19:48, 1, 78, -4 ,21, 27, N, Yes, , ,  
02/08/2018 19:41, 1, 78, -4 ,22, 28, N, Yes, , ,  
02/08/2018 19:38, 1, 78, -4 ,24, 29, N, Yes, , ,  
02/08/2018 19:28, 1, 78, -4 ,24, 30, N, Yes, , ,  
02/08/2018 19:26, 1, 78, -4 ,21, 24, N, Yes, , ,  
02/08/2018 19:18, 1, 78, -4 ,19, 29, N, None, None, ,  
02/08/2018 19:11, 2, 78, -4 ,24, 31, N, None, None, ,  
02/08/2018 19:08, 2, 78, -3 ,22, 31, N, None, None, ,  
02/08/2018 18:58, 2, 78, -3 ,24, 29, N, None, None, ,  
02/08/2018 18:56, 2, 78, -3 ,24, 29, N, Yes, , ,  
02/08/2018 18:48, 2, 78, -3 ,23, 30, N, Yes, , ,  
02/08/2018 18:41, 2, 78, -3 ,21, 29, N, Yes, , ,  
02/08/2018 18:38, 2, 78, -3 ,22, 29, N, Yes, , ,  
02/08/2018 18:28, 2, 78, -3 ,20, 31, N, Yes, , ,  
02/08/2018 18:26, 2, 78, -3 ,21, 31, N, Yes, , ,  
02/08/2018 18:17, 2, 79, -2 ,24, 31, N, Yes, , ,  
02/08/2018 18:11, 3, 79, -2 ,24, 29, N, Yes, , ,  
02/08/2018 18:07, 3, 79, -2 ,22, 29, N, Yes, , ,  
Change End Date:

Copyright © 1998-2015 Vaisala, Inc.
All Rights Reserved
Send comments about the data to:
SCAN Web ® is a registered trademark of Vaisala, Inc.
SCAN Web Version 6.0